This is the latest recevied weather packets stored in our database for station/object EB1BCG-1. If no packets are shown the sender has not sent any weather packets the latest 10 day(s).
| Time | Temp. | Humidity | Pressure | Rain* | Wind** | Luminosity | Snow |
|---|---|---|---|---|---|---|---|
| 1778164521 | 9.44° C | 89% | 1011 hPa | 1.52 mm | 0 m/s | - | - |
| 1778163987 | 9.44° C | 80% | 1011.1 hPa | 1.02 mm | 0 m/s | - | - |
| 1778163440 | 10.56° C | 73% | 1010.8 hPa | 0 mm | 0 m/s | - | - |
| 1778162834 | 10.56° C | 69% | 1010.3 hPa | 0 mm | 0 m/s | - | - |
| 1778162227 | 11.67° C | 67% | 1010.2 hPa | 0 mm | 0 m/s | - | - |
| 1778161620 | 11.67° C | 64% | 1010.2 hPa | 0 mm | 0 m/s | - | - |
| 1778161014 | 11.67° C | 60% | 1010.3 hPa | 0 mm | 0 m/s | - | - |
| 1778160407 | 12.22° C | 58% | 1010.2 hPa | 0 mm | 0 m/s | - | - |
| 1778159801 | 13.33° C | 57% | 1010.2 hPa | 0 mm | 0 m/s | - | - |
| 1778159194 | 13.89° C | 55% | 1010.3 hPa | 0 mm | 0 m/s | - | - |
| 1778158588 | 13.89° C | 51% | 1010.1 hPa | 0 mm | 0 m/s | - | - |
| 1778157983 | 15° C | 46% | 1010.1 hPa | 0 mm | 0 m/s | - | - |
| 1778157377 | 16.67° C | 44% | 1010 hPa | 0 mm | 0 m/s | - | - |
| 1778156774 | 20° C | 46% | 1010 hPa | 0 mm | 0 m/s | - | - |
| 1778156165 | 20° C | 46% | 1010 hPa | 0 mm | 0 m/s | - | - |
| 1778155560 | 20° C | 50% | 1010.1 hPa | 0 mm | 0 m/s | - | - |
| 1778154954 | 17.78° C | 52% | 1010.5 hPa | 0 mm | 0 m/s | - | - |
| 1778154342 | 17.78° C | 52% | 1010.6 hPa | 0 mm | 0 m/s | - | - |
| 1778153736 | 14.44° C | 55% | 1010.7 hPa | 0 mm | 0 m/s | - | - |
| 1778153129 | 15° C | 57% | 1011 hPa | 0 mm | 0 m/s | - | - |
| 1778152522 | 15.56° C | 54% | 1011.2 hPa | 0 mm | 0 m/s | - | - |
| 1778151916 | 15.56° C | 55% | 1011.1 hPa | 0 mm | 0 m/s | - | - |
| 1778151309 | 15.56° C | 58% | 1011.1 hPa | 0 mm | 0 m/s | - | - |
| 1778150702 | 15.56° C | 62% | 1011.2 hPa | 0 mm | 0 m/s | - | - |
| 1778150094 | 16.11° C | 66% | 1011.2 hPa | 0 mm | 0 m/s | - | - |
* Rain latest hour (hover to see other rain measurements)
** Current wind speed in m/s (hover to see current wind gust speed)